Weather History for Agadir Al Massira, Morocco

Change the Weather History Date:

Wednesday, February 20, 2013

  Actual Average Record
Temperature  
Mean Temperature 58 °F -  
Max Temperature 67 °F - - ()
Min Temperature 50 °F - - ()
Degree Days  
Heating Degree Days 6    
Growing Degree Days 8 (Base 50)    
Moisture  
Dew Point 46 °F    
Average Humidity 62    
Maximum Humidity 82    
Minimum Humidity 31    
Precipitation  
Precipitation 0.00 in - - ()
Sea Level Pressure  
Sea Level Pressure 29.98 in    
Wind  
Wind Speed 10 mph ()    
Max Wind Speed 24 mph    
Max Gust Speed -    
Visibility 6.1 miles    
Events      
T = Trace of Precipitation, MM = Missing Value Source: Averaged Metar Reports

Daily Weather History Graph

Daily Weather History Graph

Search for Another Location

Airport:

Trip Planner

Search our weather history database for the weather conditions in past years. The results will help you decide how hot, cold, wet, or windy it might be!

Date:

Astronomy

Feb. 20, 2013 Rise Set
Actual Time 7:13 AM WET 6:29 PM WET
Civil Twilight 6:48 AM WET 6:54 PM WET
Nautical Twilight 6:20 AM WET 7:22 PM WET
Astronomical Twilight 5:52 AM WET 7:50 PM WET
Moon 1:52 PM WET (2/20) 3:10 AM WET (2/20)
Length of Visible Light 12h 05m
Length of Day
11h 16m
Waxing Gibbous, 74% of the Moon is Illuminated
Feb 20
Waxing Gibbous
Feb 25
Full
Mar 4
Last Quarter
Mar 11
New
Mar 19
First Quarter

Hourly Weather History & Observations

Time (WET) Temp. Dew Point Humidity Pressure Visibility Wind Dir Wind Speed Gust Speed Precip Events Conditions
12:00 AM 55 °F 46 °F 63% 29.96 in 6 mi WNW 17.3 mph - -   Scattered Clouds
2:00 AM 53.6 °F 46.4 °F 77% 29.95 in 6.2 mi SW 5.8 mph - N/A   Partly Cloudy
3:00 AM 53 °F 46 °F 70% 29.94 in 6 mi West 8.1 mph - -   Scattered Clouds
3:00 AM 51.8 °F 46.4 °F 82% 29.92 in 6.2 mi West 8.1 mph - N/A   Partly Cloudy
4:00 AM 53.6 °F 44.6 °F 72% 29.92 in 6.2 mi West 15.0 mph - N/A   Partly Cloudy
5:00 AM 53.6 °F 44.6 °F 72% 29.95 in 6.2 mi West 6.9 mph - N/A   Partly Cloudy
6:00 AM 51 °F 44 °F 68% 29.97 in 6 mi WSW 3.5 mph - -   Scattered Clouds
6:00 AM 51.8 °F 42.8 °F 71% 29.95 in 6.2 mi WSW 3.5 mph - N/A   Partly Cloudy
7:00 AM 53.6 °F 44.6 °F 72% 29.95 in 6.2 mi West 6.9 mph - N/A   Partly Cloudy
8:00 AM 50.0 °F 42.8 °F 76% 29.98 in 6.2 mi Calm Calm - N/A   Partly Cloudy
9:00 AM 55 °F 44 °F 56% 30.02 in 6 mi Calm Calm - -   Scattered Clouds
9:00 AM 55.4 °F 44.6 °F 67% 30.01 in 6.2 mi Calm Calm - N/A   Partly Cloudy
10:00 AM 59.0 °F 44.6 °F 59% 30.04 in 6.2 mi Calm Calm - N/A   Partly Cloudy
11:00 AM 62.6 °F 42.8 °F 48% 30.04 in 6.2 mi West 8.1 mph - N/A   Partly Cloudy
12:00 PM 66 °F 43 °F 31% 30.02 in 6 mi West 12.7 mph - -   Scattered Clouds
12:00 PM 66.2 °F 42.8 °F 43% 30.01 in 6.2 mi West 12.7 mph - N/A   Partly Cloudy
1:00 PM 66.2 °F 46.4 °F 49% 29.98 in 6.2 mi West 18.4 mph - N/A   Scattered Clouds
2:00 PM 66.2 °F 44.6 °F 46% 29.98 in 6.2 mi West 20.7 mph - N/A   Scattered Clouds
3:00 PM 65 °F 47 °F 41% 29.97 in 6 mi West 24.2 mph - -   Partly Cloudy
3:00 PM 66.2 °F 46.4 °F 49% 29.95 in 6.2 mi West 24.2 mph - N/A   Scattered Clouds
4:00 PM 64.4 °F 48.2 °F 56% 29.95 in 6.2 mi West 24.2 mph - N/A   Scattered Clouds
5:00 PM 62.6 °F 50.0 °F 63% 29.95 in 6.2 mi West 21.9 mph - N/A   Unknown
6:00 PM 61 °F 50 °F 57% 29.99 in 6 mi West 16.1 mph - -   Scattered Clouds
6:00 PM 60.8 °F 50.0 °F 68% 29.98 in 6.2 mi West 16.1 mph - N/A   Partly Cloudy
7:00 PM 59.0 °F 48.2 °F 67% 29.98 in 6.2 mi West 13.8 mph - N/A   Partly Cloudy
8:00 PM 59.0 °F 50.0 °F 72% 30.01 in 6.2 mi SW 10.4 mph - N/A   Partly Cloudy
9:00 PM 58 °F 49 °F 64% 30.04 in 6 mi West 11.5 mph - -   Scattered Clouds
9:00 PM 59.0 °F 50.0 °F 72% 30.04 in 6.2 mi West 11.5 mph - N/A   Partly Cloudy
10:00 PM 59.0 °F 48.2 °F 67% 30.04 in 6.2 mi West 10.4 mph - N/A   Partly Cloudy